Year,Month,Day,Hour,Minute,Value (Times are PST for temperature in C)
2007,05,22,00,00,5.30
2007,05,22,00,01,5.30
2007,05,22,00,02,5.30
2007,05,22,00,03,5.30
2007,05,22,00,04,5.30
2007,05,22,00,05,5.20
2007,05,22,00,06,5.20
2007,05,22,00,07,5.20
2007,05,22,00,08,5.20
2007,05,22,00,09,5.20
2007,05,22,00,10,5.20
2007,05,22,00,11,5.20
2007,05,22,00,12,5.20
2007,05,22,00,13,5.20
2007,05,22,00,14,5.20
2007,05,22,00,15,5.20
2007,05,22,00,16,5.20
2007,05,22,00,17,5.20
2007,05,22,00,18,5.20
2007,05,22,00,19,5.20
2007,05,22,00,20,5.20
2007,05,22,00,21,5.20
2007,05,22,00,22,5.30
2007,05,22,00,23,5.30
2007,05,22,00,24,5.30
2007,05,22,00,25,5.30
2007,05,22,00,26,5.30
2007,05,22,00,27,5.30
2007,05,22,00,28,5.30
2007,05,22,00,29,5.30
2007,05,22,00,30,5.30
2007,05,22,00,31,5.20
2007,05,22,00,32,5.20
2007,05,22,00,33,5.20
2007,05,22,00,34,5.20
2007,05,22,00,35,5.20
2007,05,22,00,36,5.20
2007,05,22,00,37,5.20
2007,05,22,00,38,5.10
2007,05,22,00,39,5.10
2007,05,22,00,40,5.10
2007,05,22,00,41,5.10
2007,05,22,00,42,5.10
2007,05,22,00,43,5.10
2007,05,22,00,44,5.10
2007,05,22,00,45,5.10
2007,05,22,00,46,5.10
2007,05,22,00,47,5.10
2007,05,22,00,48,5.10
2007,05,22,00,49,5.10
2007,05,22,00,50,5.10
2007,05,22,00,51,5.10
2007,05,22,00,52,5.10
2007,05,22,00,53,5.10
2007,05,22,00,54,5.10
2007,05,22,00,55,5.10
2007,05,22,00,56,5.10
2007,05,22,00,57,5.10
2007,05,22,00,58,5.10
2007,05,22,00,59,5.10
2007,05,22,01,00,5.10
2007,05,22,01,01,5.10
2007,05,22,01,02,5.10
2007,05,22,01,03,5.10
2007,05,22,01,04,5.20
2007,05,22,01,05,5.20
2007,05,22,01,06,5.30
2007,05,22,01,07,5.30
2007,05,22,01,08,5.40
2007,05,22,01,09,5.40
2007,05,22,01,10,5.40
2007,05,22,01,11,5.40
2007,05,22,01,12,5.50
2007,05,22,01,13,5.50
2007,05,22,01,14,5.50
2007,05,22,01,15,5.40
2007,05,22,01,16,5.40
2007,05,22,01,17,5.40
2007,05,22,01,18,5.40
2007,05,22,01,19,5.40
2007,05,22,01,20,5.40
2007,05,22,01,21,5.40
2007,05,22,01,22,5.40
2007,05,22,01,23,5.40
2007,05,22,01,24,5.40
2007,05,22,01,25,5.40
2007,05,22,01,26,5.40
2007,05,22,01,27,5.40
2007,05,22,01,28,5.40
2007,05,22,01,29,5.40
2007,05,22,01,30,5.40
2007,05,22,01,31,5.40
2007,05,22,01,32,5.40
2007,05,22,01,33,5.40
2007,05,22,01,34,5.40
2007,05,22,01,35,5.40
2007,05,22,01,36,5.50
2007,05,22,01,37,5.50
2007,05,22,01,38,5.50
2007,05,22,01,39,5.60
2007,05,22,01,40,5.60
2007,05,22,01,41,5.60
2007,05,22,01,42,5.70
2007,05,22,01,43,5.70
2007,05,22,01,44,5.70
2007,05,22,01,45,5.70
2007,05,22,01,46,5.70
2007,05,22,01,47,5.70
2007,05,22,01,48,5.70
2007,05,22,01,49,5.60
2007,05,22,01,50,5.60
2007,05,22,01,51,5.60
2007,05,22,01,52,5.60
2007,05,22,01,53,5.60
2007,05,22,01,54,5.60
2007,05,22,01,55,5.60
2007,05,22,01,56,5.60
2007,05,22,01,57,5.60
2007,05,22,01,58,5.60
2007,05,22,01,59,5.50
2007,05,22,02,00,5.50
2007,05,22,02,01,5.50
2007,05,22,02,02,5.50
2007,05,22,02,03,5.50
2007,05,22,02,04,5.50
2007,05,22,02,05,5.40
2007,05,22,02,06,5.40
2007,05,22,02,07,5.40
2007,05,22,02,08,5.30
2007,05,22,02,09,5.30
2007,05,22,02,10,5.30
2007,05,22,02,11,5.30
2007,05,22,02,12,5.30
2007,05,22,02,13,5.30
2007,05,22,02,14,5.30
2007,05,22,02,15,5.30
2007,05,22,02,16,5.20
2007,05,22,02,17,5.20
2007,05,22,02,18,5.20
2007,05,22,02,19,5.20
2007,05,22,02,20,5.10
2007,05,22,02,21,5.10
2007,05,22,02,22,5.10
2007,05,22,02,23,5.10
2007,05,22,02,24,5.10
2007,05,22,02,25,5.10
2007,05,22,02,26,5.10
2007,05,22,02,27,5.10
2007,05,22,02,28,5.10
2007,05,22,02,29,5.10
2007,05,22,02,30,5.10
2007,05,22,02,31,5.10
2007,05,22,02,32,5.10
2007,05,22,02,33,4.90
2007,05,22,02,34,4.90
2007,05,22,02,35,4.90
2007,05,22,02,36,4.90
2007,05,22,02,37,4.90
2007,05,22,02,38,4.90
2007,05,22,02,39,4.90
2007,05,22,02,40,4.90
2007,05,22,02,41,4.90
2007,05,22,02,42,4.90
2007,05,22,02,43,4.90
2007,05,22,02,44,4.90
2007,05,22,02,45,4.90
2007,05,22,02,46,4.90
2007,05,22,02,47,4.90
2007,05,22,02,48,4.90
2007,05,22,02,49,4.90
2007,05,22,02,50,4.90
2007,05,22,02,51,4.90
2007,05,22,02,52,4.90
2007,05,22,02,53,4.90
2007,05,22,02,54,4.90
2007,05,22,02,55,4.90
2007,05,22,02,56,4.90
2007,05,22,02,57,4.90
2007,05,22,02,58,5.00
2007,05,22,02,59,5.10
2007,05,22,03,00,5.10
2007,05,22,03,01,5.10
2007,05,22,03,02,5.10
2007,05,22,03,03,5.20
2007,05,22,03,04,5.20
2007,05,22,03,05,5.30
2007,05,22,03,06,5.30
2007,05,22,03,07,5.30
2007,05,22,03,08,5.30
2007,05,22,03,09,5.30
2007,05,22,03,10,5.30
2007,05,22,03,11,5.30
2007,05,22,03,12,5.30
2007,05,22,03,13,5.30
2007,05,22,03,14,5.30
2007,05,22,03,15,5.30
2007,05,22,03,16,5.30
2007,05,22,03,17,5.30
2007,05,22,03,18,5.30
2007,05,22,03,19,5.30
2007,05,22,03,20,5.30
2007,05,22,03,21,5.40
2007,05,22,03,22,5.40
2007,05,22,03,23,5.40
2007,05,22,03,24,5.40
2007,05,22,03,25,5.40
2007,05,22,03,26,5.40
2007,05,22,03,27,5.40
2007,05,22,03,28,5.40
2007,05,22,03,29,5.40
2007,05,22,03,30,5.40
2007,05,22,03,31,5.40
2007,05,22,03,32,5.40
2007,05,22,03,33,5.40
2007,05,22,03,34,5.40
2007,05,22,03,35,5.30
2007,05,22,03,36,5.30
2007,05,22,03,37,5.30
2007,05,22,03,38,5.30
2007,05,22,03,39,5.30
2007,05,22,03,40,5.30
2007,05,22,03,41,5.30
2007,05,22,03,42,5.30
2007,05,22,03,43,5.30
2007,05,22,03,44,5.30
2007,05,22,03,45,5.30
2007,05,22,03,46,5.30
2007,05,22,03,47,5.20
2007,05,22,03,48,5.20
2007,05,22,03,49,5.20
2007,05,22,03,50,5.20
2007,05,22,03,51,5.20
2007,05,22,03,52,5.20
2007,05,22,03,53,5.20
2007,05,22,03,54,5.20
2007,05,22,03,55,5.10
2007,05,22,03,56,5.10
2007,05,22,03,57,5.10
2007,05,22,03,58,5.10
2007,05,22,03,59,5.10
2007,05,22,04,00,5.10
2007,05,22,04,01,5.10
2007,05,22,04,02,5.10
2007,05,22,04,03,5.10
2007,05,22,04,04,5.10
2007,05,22,04,05,5.10
2007,05,22,04,06,5.10
2007,05,22,04,07,5.10
2007,05,22,04,08,5.10
2007,05,22,04,09,5.10
2007,05,22,04,10,5.10
2007,05,22,04,11,5.10
2007,05,22,04,12,5.10
2007,05,22,04,13,5.10
2007,05,22,04,14,5.10
2007,05,22,04,15,5.10
2007,05,22,04,16,5.20
2007,05,22,04,17,5.20
2007,05,22,04,18,5.20
2007,05,22,04,19,5.20
2007,05,22,04,20,5.30
2007,05,22,04,21,5.30
2007,05,22,04,22,5.30
2007,05,22,04,23,5.30
2007,05,22,04,24,5.30
2007,05,22,04,25,5.30
2007,05,22,04,26,5.30
2007,05,22,04,27,5.30
2007,05,22,04,28,5.30
2007,05,22,04,29,5.30
2007,05,22,04,30,5.30
2007,05,22,04,31,5.30
2007,05,22,04,32,5.30
2007,05,22,04,33,5.30
2007,05,22,04,34,5.30
2007,05,22,04,35,5.30
2007,05,22,04,36,5.30
2007,05,22,04,37,5.30
2007,05,22,04,38,5.30
2007,05,22,04,39,5.30
2007,05,22,04,40,5.30
2007,05,22,04,41,5.30
2007,05,22,04,42,5.30
2007,05,22,04,43,5.30
2007,05,22,04,44,5.30
2007,05,22,04,45,5.30
2007,05,22,04,46,5.30
2007,05,22,04,47,5.20
2007,05,22,04,48,5.20
2007,05,22,04,49,5.20
2007,05,22,04,50,5.10
2007,05,22,04,51,5.10
2007,05,22,04,52,5.10
2007,05,22,04,53,5.10
2007,05,22,04,54,5.10
2007,05,22,04,55,4.90
2007,05,22,04,56,4.90
2007,05,22,04,57,4.90
2007,05,22,04,58,4.90
2007,05,22,04,59,4.90
2007,05,22,05,00,4.80
2007,05,22,05,01,4.80
2007,05,22,05,02,4.80
2007,05,22,05,03,4.70
2007,05,22,05,04,4.70
2007,05,22,05,05,4.70
2007,05,22,05,06,4.70
2007,05,22,05,07,4.60
2007,05,22,05,08,4.60
2007,05,22,05,09,4.60
2007,05,22,05,10,4.60
2007,05,22,05,11,4.60
2007,05,22,05,12,4.60
2007,05,22,05,13,4.60
2007,05,22,05,14,4.50
2007,05,22,05,15,4.50
2007,05,22,05,16,4.50
2007,05,22,05,17,4.40
2007,05,22,05,18,4.40
2007,05,22,05,19,4.40
2007,05,22,05,20,4.40
2007,05,22,05,21,4.30
2007,05,22,05,22,4.30
2007,05,22,05,23,4.30
2007,05,22,05,24,4.20
2007,05,22,05,25,4.20
2007,05,22,05,26,4.20
2007,05,22,05,27,4.20
2007,05,22,05,28,4.20
2007,05,22,05,29,4.20
2007,05,22,05,30,4.20
2007,05,22,05,31,4.10
2007,05,22,05,32,4.10
2007,05,22,05,33,4.10
2007,05,22,05,34,4.10
2007,05,22,05,35,4.00
2007,05,22,05,36,4.00
2007,05,22,05,37,4.00
2007,05,22,05,38,4.00
2007,05,22,05,39,4.00
2007,05,22,05,40,4.00
2007,05,22,05,41,4.00
2007,05,22,05,42,3.90
2007,05,22,05,43,3.90
2007,05,22,05,44,3.90
2007,05,22,05,45,3.90
2007,05,22,05,46,3.90
2007,05,22,05,47,3.90
2007,05,22,05,48,3.90
2007,05,22,05,49,3.90
2007,05,22,05,50,3.90
2007,05,22,05,51,3.90
2007,05,22,05,52,3.90
2007,05,22,05,53,3.90
2007,05,22,05,54,3.90
2007,05,22,05,55,3.90
2007,05,22,05,56,3.90
2007,05,22,05,57,3.80
2007,05,22,05,58,3.80
2007,05,22,05,59,3.80
2007,05,22,06,00,3.80
2007,05,22,06,01,3.80
2007,05,22,06,02,3.80
2007,05,22,06,03,3.80
2007,05,22,06,04,3.80
2007,05,22,06,05,3.80
2007,05,22,06,06,3.90
2007,05,22,06,07,3.90
2007,05,22,06,08,3.90
2007,05,22,06,09,3.90
2007,05,22,06,10,3.90
2007,05,22,06,11,3.90
2007,05,22,06,12,4.00
2007,05,22,06,13,4.00
2007,05,22,06,14,4.00
2007,05,22,06,15,4.00
2007,05,22,06,16,4.00
2007,05,22,06,17,4.10
2007,05,22,06,18,4.10
2007,05,22,06,19,4.20
2007,05,22,06,20,4.20
2007,05,22,06,21,4.20
2007,05,22,06,22,4.20
2007,05,22,06,23,4.30
2007,05,22,06,24,4.30
2007,05,22,06,25,4.40
2007,05,22,06,26,4.50
2007,05,22,06,27,4.50
2007,05,22,06,28,4.50
2007,05,22,06,29,4.50
2007,05,22,06,30,4.50
2007,05,22,06,31,4.60
2007,05,22,06,32,4.60
2007,05,22,06,33,4.60
2007,05,22,06,34,4.60
2007,05,22,06,35,4.60
2007,05,22,06,36,4.60
2007,05,22,06,37,4.60
2007,05,22,06,38,4.60
2007,05,22,06,39,4.60
2007,05,22,06,40,4.60
2007,05,22,06,41,4.60
2007,05,22,06,42,4.60
2007,05,22,06,43,4.70
2007,05,22,06,44,4.80
2007,05,22,06,45,4.80
2007,05,22,06,46,4.90
2007,05,22,06,47,4.90
2007,05,22,06,48,5.00
2007,05,22,06,49,5.10
2007,05,22,06,50,5.10
2007,05,22,06,51,5.20
2007,05,22,06,52,5.30
2007,05,22,06,53,5.40
2007,05,22,06,54,5.40
2007,05,22,06,55,5.50
2007,05,22,06,56,5.50
2007,05,22,06,57,5.60
2007,05,22,06,58,5.70
2007,05,22,06,59,5.70
2007,05,22,07,00,5.80
2007,05,22,07,01,5.90
2007,05,22,07,02,5.90
2007,05,22,07,03,6.00
2007,05,22,07,04,6.00
2007,05,22,07,05,6.10
2007,05,22,07,06,6.20
2007,05,22,07,07,6.20
2007,05,22,07,08,6.20
2007,05,22,07,09,6.20
2007,05,22,07,10,6.30
2007,05,22,07,11,6.30
2007,05,22,07,12,6.40
2007,05,22,07,13,6.60
2007,05,22,07,14,6.60
2007,05,22,07,15,6.70
2007,05,22,07,16,6.70
2007,05,22,07,17,6.80
2007,05,22,07,18,6.80
2007,05,22,07,19,6.80
2007,05,22,07,20,6.90
2007,05,22,07,21,7.00
2007,05,22,07,22,7.10
2007,05,22,07,23,7.20
2007,05,22,07,24,7.20
2007,05,22,07,25,7.30
2007,05,22,07,26,7.30
2007,05,22,07,27,7.40
2007,05,22,07,28,7.50
2007,05,22,07,29,7.60
2007,05,22,07,30,7.70
2007,05,22,07,31,7.80
2007,05,22,07,32,7.80
2007,05,22,07,33,7.90
2007,05,22,07,34,7.90
2007,05,22,07,35,7.90
2007,05,22,07,36,8.00
2007,05,22,07,37,8.00
2007,05,22,07,38,8.00
2007,05,22,07,39,8.00
2007,05,22,07,40,8.10
2007,05,22,07,41,8.10
2007,05,22,07,42,8.10
2007,05,22,07,43,8.20
2007,05,22,07,44,8.20
2007,05,22,07,45,8.20
2007,05,22,07,46,8.20
2007,05,22,07,47,8.20
2007,05,22,07,48,8.20
2007,05,22,07,49,8.20
2007,05,22,07,50,8.20
2007,05,22,07,51,8.20
2007,05,22,07,52,8.20
2007,05,22,07,53,8.20
2007,05,22,07,54,8.20
2007,05,22,07,55,8.20
2007,05,22,07,56,8.20
2007,05,22,07,57,8.30
2007,05,22,07,58,8.30
2007,05,22,07,59,8.40
2007,05,22,08,00,8.40
2007,05,22,08,01,8.50
2007,05,22,08,02,8.60
2007,05,22,08,03,8.60
2007,05,22,08,04,8.70
2007,05,22,08,05,8.70
2007,05,22,08,06,8.80
2007,05,22,08,07,8.80
2007,05,22,08,08,8.90
2007,05,22,08,09,8.90
2007,05,22,08,10,9.00
2007,05,22,08,11,9.10
2007,05,22,08,12,9.10
2007,05,22,08,13,9.20
2007,05,22,08,14,9.20
2007,05,22,08,15,9.20
2007,05,22,08,16,9.20
2007,05,22,08,17,9.30
2007,05,22,08,18,9.30
2007,05,22,08,19,9.30
2007,05,22,08,20,9.40
2007,05,22,08,21,9.40
2007,05,22,08,22,9.40
2007,05,22,08,23,9.50
2007,05,22,08,24,9.50
2007,05,22,08,25,9.60
2007,05,22,08,26,9.70
2007,05,22,08,27,9.80
2007,05,22,08,28,9.90
2007,05,22,08,29,10.10
2007,05,22,08,30,10.10
2007,05,22,08,31,10.20
2007,05,22,08,32,10.40
2007,05,22,08,33,10.60
2007,05,22,08,34,10.70
2007,05,22,08,35,10.90
2007,05,22,08,36,10.90
2007,05,22,08,37,11.10
2007,05,22,08,38,11.10
2007,05,22,08,39,11.30
2007,05,22,08,40,11.50
2007,05,22,08,41,11.60
2007,05,22,08,42,11.70
2007,05,22,08,43,11.80
2007,05,22,08,44,11.90
2007,05,22,08,45,12.00
2007,05,22,08,46,12.00
2007,05,22,08,47,12.20
2007,05,22,08,48,12.20
2007,05,22,08,49,12.40
2007,05,22,08,50,12.50
2007,05,22,08,51,12.60
2007,05,22,08,52,12.60
2007,05,22,08,53,12.80
2007,05,22,08,54,12.80
2007,05,22,08,55,12.80
2007,05,22,08,56,12.80
2007,05,22,08,57,12.90
2007,05,22,08,58,12.90
2007,05,22,08,59,12.90
2007,05,22,09,00,13.00
2007,05,22,09,01,13.00
2007,05,22,09,02,12.90
2007,05,22,09,03,12.80
2007,05,22,09,04,12.80
2007,05,22,09,05,12.70
2007,05,22,09,06,12.60
2007,05,22,09,07,12.50
2007,05,22,09,08,12.30
2007,05,22,09,09,12.20
2007,05,22,09,10,12.10
2007,05,22,09,11,11.90
2007,05,22,09,12,11.90
2007,05,22,09,13,11.80
2007,05,22,09,14,11.80
2007,05,22,09,15,11.80
2007,05,22,09,16,11.80
2007,05,22,09,17,11.80
2007,05,22,09,18,11.70
2007,05,22,09,19,11.80
2007,05,22,09,20,11.80
2007,05,22,09,21,11.80
2007,05,22,09,22,11.80
2007,05,22,09,23,11.80
2007,05,22,09,24,11.80
2007,05,22,09,25,11.80
2007,05,22,09,26,11.80
2007,05,22,09,27,11.70
2007,05,22,09,28,11.70
2007,05,22,09,29,11.70
2007,05,22,09,30,11.60
2007,05,22,09,31,11.60
2007,05,22,09,32,11.60
2007,05,22,09,33,11.60
2007,05,22,09,34,11.60
2007,05,22,09,35,11.60
2007,05,22,09,36,11.60
2007,05,22,09,37,11.70
2007,05,22,09,38,11.70
2007,05,22,09,39,11.80
2007,05,22,09,40,11.80
2007,05,22,09,41,11.90
2007,05,22,09,42,11.90
2007,05,22,09,43,12.00
2007,05,22,09,44,12.10
2007,05,22,09,45,12.20
2007,05,22,09,46,12.20
2007,05,22,09,47,12.30
2007,05,22,09,48,12.40
2007,05,22,09,49,12.50
2007,05,22,09,50,12.60
2007,05,22,09,51,12.70
2007,05,22,09,52,12.80
2007,05,22,09,53,12.80
2007,05,22,09,54,12.90
2007,05,22,09,55,12.90
2007,05,22,09,56,13.00
2007,05,22,09,57,13.00
2007,05,22,09,58,13.10
2007,05,22,09,59,13.10
2007,05,22,10,00,13.10
2007,05,22,10,01,13.20
2007,05,22,10,02,13.20
2007,05,22,10,03,13.20
2007,05,22,10,04,13.20
2007,05,22,10,05,13.20
2007,05,22,10,06,13.20
2007,05,22,10,07,13.20
2007,05,22,10,08,13.10
2007,05,22,10,09,13.20
2007,05,22,10,10,13.20
2007,05,22,10,11,13.10
2007,05,22,10,12,13.00
2007,05,22,10,13,13.00
2007,05,22,10,14,13.00
2007,05,22,10,15,13.00
2007,05,22,10,16,13.00
2007,05,22,10,17,13.10
2007,05,22,10,18,13.10
2007,05,22,10,19,13.10
2007,05,22,10,20,13.10
2007,05,22,10,21,13.10
2007,05,22,10,22,13.20
2007,05,22,10,23,13.20
2007,05,22,10,24,13.10
2007,05,22,10,25,13.10
2007,05,22,10,26,13.10
2007,05,22,10,27,13.10
2007,05,22,10,28,13.10
2007,05,22,10,29,13.10
2007,05,22,10,30,13.10
2007,05,22,10,31,13.10
2007,05,22,10,32,13.10
2007,05,22,10,33,13.00
2007,05,22,10,34,13.00
2007,05,22,10,35,13.00
2007,05,22,10,36,13.00
2007,05,22,10,37,13.00
2007,05,22,10,38,13.00
2007,05,22,10,39,13.00
2007,05,22,10,40,13.00
2007,05,22,10,41,13.10
2007,05,22,10,42,13.10
2007,05,22,10,43,13.10
2007,05,22,10,44,13.20
2007,05,22,10,45,13.20
2007,05,22,10,46,13.20
2007,05,22,10,47,13.30
2007,05,22,10,48,13.30
2007,05,22,10,49,13.50
2007,05,22,10,50,13.60
2007,05,22,10,51,13.70
2007,05,22,10,52,13.70
2007,05,22,10,53,13.70
2007,05,22,10,54,13.80
2007,05,22,10,55,13.80
2007,05,22,10,56,13.90
2007,05,22,10,57,14.00
2007,05,22,10,58,14.10
2007,05,22,10,59,14.20
2007,05,22,11,00,14.50
2007,05,22,11,01,14.60
2007,05,22,11,02,14.60
2007,05,22,11,03,14.70
2007,05,22,11,04,14.80
2007,05,22,11,05,14.80
2007,05,22,11,06,14.80
2007,05,22,11,07,14.70
2007,05,22,11,08,14.80
2007,05,22,11,09,14.80
2007,05,22,11,10,14.80
2007,05,22,11,11,14.80
2007,05,22,11,12,15.00
2007,05,22,11,13,15.10
2007,05,22,11,14,15.20
2007,05,22,11,15,15.30
2007,05,22,11,16,15.30
2007,05,22,11,17,15.50
2007,05,22,11,18,15.50
2007,05,22,11,19,15.50
2007,05,22,11,20,15.50
2007,05,22,11,21,15.50
2007,05,22,11,22,15.50
2007,05,22,11,23,15.50
2007,05,22,11,24,15.50
2007,05,22,11,25,15.50
2007,05,22,11,26,15.60
2007,05,22,11,27,15.60
2007,05,22,11,28,15.70
2007,05,22,11,29,15.60
2007,05,22,11,30,15.60
2007,05,22,11,31,15.50
2007,05,22,11,32,15.50
2007,05,22,11,33,15.40
2007,05,22,11,34,15.50
2007,05,22,11,35,15.50
2007,05,22,11,36,15.60
2007,05,22,11,37,15.70
2007,05,22,11,38,15.70
2007,05,22,11,39,15.80
2007,05,22,11,40,15.80
2007,05,22,11,41,15.80
2007,05,22,11,42,15.80
2007,05,22,11,43,15.90
2007,05,22,11,44,16.10
2007,05,22,11,45,16.20
2007,05,22,11,46,16.30
2007,05,22,11,47,16.20
2007,05,22,11,48,16.10
2007,05,22,11,49,16.00
2007,05,22,11,50,15.80
2007,05,22,11,51,15.70
2007,05,22,11,52,15.50
2007,05,22,11,53,15.30
2007,05,22,11,54,15.20
2007,05,22,11,55,15.00
2007,05,22,11,56,15.00
2007,05,22,11,57,15.00
2007,05,22,11,58,15.00
2007,05,22,11,59,15.00
2007,05,22,12,00,15.00
2007,05,22,12,01,15.10
2007,05,22,12,02,15.10
2007,05,22,12,03,15.20
2007,05,22,12,04,15.20
2007,05,22,12,05,15.20
2007,05,22,12,06,15.10
2007,05,22,12,07,15.10
2007,05,22,12,08,15.10
2007,05,22,12,09,15.10
2007,05,22,12,10,15.10
2007,05,22,12,11,15.10
2007,05,22,12,12,15.20
2007,05,22,12,13,15.30
2007,05,22,12,14,15.30
2007,05,22,12,15,15.40
2007,05,22,12,16,15.50
2007,05,22,12,17,15.50
2007,05,22,12,18,15.60
2007,05,22,12,19,15.80
2007,05,22,12,20,15.80
2007,05,22,12,21,15.80
2007,05,22,12,22,16.00
2007,05,22,12,23,16.10
2007,05,22,12,24,16.10
2007,05,22,12,25,16.20
2007,05,22,12,26,16.30
2007,05,22,12,27,16.40
2007,05,22,12,28,16.50
2007,05,22,12,29,16.60
2007,05,22,12,30,16.70
2007,05,22,12,31,16.70
2007,05,22,12,32,16.70
2007,05,22,12,33,16.80
2007,05,22,12,34,16.70
2007,05,22,12,35,16.70
2007,05,22,12,36,16.70
2007,05,22,12,37,16.80
2007,05,22,12,38,17.00
2007,05,22,12,39,17.10
2007,05,22,12,40,17.30
2007,05,22,12,41,17.40
2007,05,22,12,42,17.60
2007,05,22,12,43,17.60
2007,05,22,12,44,17.60
2007,05,22,12,45,17.60
2007,05,22,12,46,17.50
2007,05,22,12,47,17.50
2007,05,22,12,48,17.30
2007,05,22,12,49,17.20
2007,05,22,12,50,17.00
2007,05,22,12,51,16.90
2007,05,22,12,52,16.80
2007,05,22,12,53,16.80
2007,05,22,12,54,16.80
2007,05,22,12,55,16.80
2007,05,22,12,56,16.70
2007,05,22,12,57,16.70
2007,05,22,12,58,16.80
2007,05,22,12,59,16.80
2007,05,22,13,00,16.90
2007,05,22,13,01,17.00
2007,05,22,13,02,17.00
2007,05,22,13,03,17.00
2007,05,22,13,04,17.10
2007,05,22,13,05,17.20
2007,05,22,13,06,17.20
2007,05,22,13,07,17.30
2007,05,22,13,08,17.30
2007,05,22,13,09,17.30
2007,05,22,13,10,17.30
2007,05,22,13,11,17.30
2007,05,22,13,12,17.30
2007,05,22,13,13,17.30
2007,05,22,13,14,17.30
2007,05,22,13,15,17.30
2007,05,22,13,16,17.30
2007,05,22,13,17,17.40
2007,05,22,13,18,17.40
2007,05,22,13,19,17.50
2007,05,22,13,20,17.50
2007,05,22,13,21,17.60
2007,05,22,13,22,17.60
2007,05,22,13,23,17.50
2007,05,22,13,24,17.40
2007,05,22,13,25,17.40
2007,05,22,13,26,17.40
2007,05,22,13,27,17.40
2007,05,22,13,28,17.30
2007,05,22,13,29,17.20
2007,05,22,13,30,17.10
2007,05,22,13,31,17.10
2007,05,22,13,32,17.00
2007,05,22,13,33,16.90
2007,05,22,13,34,16.90
2007,05,22,13,35,16.90
2007,05,22,13,36,16.80
2007,05,22,13,37,16.90
2007,05,22,13,38,16.90
2007,05,22,13,39,16.80
2007,05,22,13,40,16.80
2007,05,22,13,41,16.70
2007,05,22,13,42,16.70
2007,05,22,13,43,16.80
2007,05,22,13,44,16.90
2007,05,22,13,45,17.10
2007,05,22,13,46,17.20
2007,05,22,13,47,17.20
2007,05,22,13,48,17.20
2007,05,22,13,49,17.10
2007,05,22,13,50,16.90
2007,05,22,13,51,16.80
2007,05,22,13,52,16.70
2007,05,22,13,53,16.80
2007,05,22,13,54,16.70
2007,05,22,13,55,16.60
2007,05,22,13,56,16.40
2007,05,22,13,57,16.40
2007,05,22,13,58,16.40
2007,05,22,13,59,16.30
2007,05,22,14,00,16.20
2007,05,22,14,01,16.10
2007,05,22,14,02,16.10
2007,05,22,14,03,15.90
2007,05,22,14,04,16.00
2007,05,22,14,05,16.10
2007,05,22,14,06,16.10
2007,05,22,14,07,16.20
2007,05,22,14,08,16.20
2007,05,22,14,09,16.30
2007,05,22,14,10,16.40
2007,05,22,14,11,16.40
2007,05,22,14,12,16.60
2007,05,22,14,13,16.70
2007,05,22,14,14,16.80
2007,05,22,14,15,16.90
2007,05,22,14,16,16.90
2007,05,22,14,17,16.80
2007,05,22,14,18,16.90
2007,05,22,14,19,16.90
2007,05,22,14,20,16.90
2007,05,22,14,21,16.80
2007,05,22,14,22,16.70
2007,05,22,14,23,16.70
2007,05,22,14,24,16.80
2007,05,22,14,25,16.90
2007,05,22,14,26,17.00
2007,05,22,14,27,17.10
2007,05,22,14,28,17.10
2007,05,22,14,29,17.10
2007,05,22,14,30,17.10
2007,05,22,14,31,17.10
2007,05,22,14,32,17.10
2007,05,22,14,33,17.20
2007,05,22,14,34,17.20
2007,05,22,14,35,17.20
2007,05,22,14,36,17.20
2007,05,22,14,37,17.20
2007,05,22,14,38,17.10
2007,05,22,14,39,17.00
2007,05,22,14,40,17.00
2007,05,22,14,41,17.00
2007,05,22,14,42,17.00
2007,05,22,14,43,17.00
2007,05,22,14,44,17.00
2007,05,22,14,45,17.10
2007,05,22,14,46,17.10
2007,05,22,14,47,17.10
2007,05,22,14,48,17.10
2007,05,22,14,49,17.00
2007,05,22,14,50,17.00
2007,05,22,14,51,17.00
2007,05,22,14,52,17.10
2007,05,22,14,53,17.00
2007,05,22,14,54,17.00
2007,05,22,14,55,16.90
2007,05,22,14,56,16.90
2007,05,22,14,57,16.90
2007,05,22,14,58,16.90
2007,05,22,14,59,16.80
2007,05,22,15,00,16.70
2007,05,22,15,01,16.70
2007,05,22,15,02,16.70
2007,05,22,15,03,16.70
2007,05,22,15,04,16.80
2007,05,22,15,05,16.80
2007,05,22,15,06,16.80
2007,05,22,15,07,16.70
2007,05,22,15,08,16.70
2007,05,22,15,09,16.70
2007,05,22,15,10,16.70
2007,05,22,15,11,16.80
2007,05,22,15,12,16.90
2007,05,22,15,13,16.90
2007,05,22,15,14,17.10
2007,05,22,15,15,17.20
2007,05,22,15,16,17.30
2007,05,22,15,17,17.30
2007,05,22,15,18,17.30
2007,05,22,15,19,17.20
2007,05,22,15,20,17.20
2007,05,22,15,21,17.20
2007,05,22,15,22,17.10
2007,05,22,15,23,17.10
2007,05,22,15,24,17.10
2007,05,22,15,25,17.20
2007,05,22,15,26,17.20
2007,05,22,15,27,17.20
2007,05,22,15,28,17.20
2007,05,22,15,29,17.20
2007,05,22,15,30,17.10
2007,05,22,15,31,17.10
2007,05,22,15,32,17.00
2007,05,22,15,33,16.90
2007,05,22,15,34,16.80
2007,05,22,15,35,16.70
2007,05,22,15,36,16.60
2007,05,22,15,37,16.60
2007,05,22,15,38,16.60
2007,05,22,15,39,16.70
2007,05,22,15,40,16.70
2007,05,22,15,41,16.70
2007,05,22,15,42,16.90
2007,05,22,15,43,16.90
2007,05,22,15,44,16.90
2007,05,22,15,45,16.90
2007,05,22,15,46,16.90
2007,05,22,15,47,16.90
2007,05,22,15,48,16.90
2007,05,22,15,49,17.00
2007,05,22,15,50,17.00
2007,05,22,15,51,16.90
2007,05,22,15,52,16.90
2007,05,22,15,53,16.90
2007,05,22,15,54,16.90
2007,05,22,15,55,16.90
2007,05,22,15,56,16.80
2007,05,22,15,57,16.70
2007,05,22,15,58,16.70
2007,05,22,15,59,16.80
2007,05,22,16,00,16.80
2007,05,22,16,01,16.80
2007,05,22,16,02,16.80
2007,05,22,16,03,16.80
2007,05,22,16,04,16.80
2007,05,22,16,05,16.90
2007,05,22,16,06,16.90
2007,05,22,16,07,16.90
2007,05,22,16,08,17.00
2007,05,22,16,09,17.00
2007,05,22,16,10,17.10
2007,05,22,16,11,17.10
2007,05,22,16,12,17.10
2007,05,22,16,13,17.10
2007,05,22,16,14,17.10
2007,05,22,16,15,17.10
2007,05,22,16,16,17.10
2007,05,22,16,17,17.10
2007,05,22,16,18,17.10
2007,05,22,16,19,17.10
2007,05,22,16,20,17.10
2007,05,22,16,21,17.00
2007,05,22,16,22,17.00
2007,05,22,16,23,17.00
2007,05,22,16,24,16.90
2007,05,22,16,25,16.80
2007,05,22,16,26,16.70
2007,05,22,16,27,16.70
2007,05,22,16,28,16.70
2007,05,22,16,29,16.60
2007,05,22,16,30,16.40
2007,05,22,16,31,16.40
2007,05,22,16,32,16.30
2007,05,22,16,33,16.30
2007,05,22,16,34,16.20
2007,05,22,16,35,16.20
2007,05,22,16,36,16.20
2007,05,22,16,37,16.10
2007,05,22,16,38,16.10
2007,05,22,16,39,16.10
2007,05,22,16,40,16.10
2007,05,22,16,41,16.10
2007,05,22,16,42,16.10
2007,05,22,16,43,16.10
2007,05,22,16,44,16.10
2007,05,22,16,45,16.10
2007,05,22,16,46,16.10
2007,05,22,16,47,16.10
2007,05,22,16,48,16.10
2007,05,22,16,49,16.10
2007,05,22,16,50,16.10
2007,05,22,16,51,16.20
2007,05,22,16,52,16.20
2007,05,22,16,53,16.20
2007,05,22,16,54,16.20
2007,05,22,16,55,16.30
2007,05,22,16,56,16.30
2007,05,22,16,57,16.30
2007,05,22,16,58,16.30
2007,05,22,16,59,16.40
2007,05,22,17,00,16.40
2007,05,22,17,01,16.40
2007,05,22,17,02,16.40
2007,05,22,17,03,16.40
2007,05,22,17,04,16.40
2007,05,22,17,05,16.40
2007,05,22,17,06,16.40
2007,05,22,17,07,16.40
2007,05,22,17,08,16.40
2007,05,22,17,09,16.60
2007,05,22,17,10,16.60
2007,05,22,17,11,16.70
2007,05,22,17,12,16.70
2007,05,22,17,13,16.70
2007,05,22,17,14,16.70
2007,05,22,17,15,16.70
2007,05,22,17,16,16.70
2007,05,22,17,17,16.70
2007,05,22,17,18,16.80
2007,05,22,17,19,16.80
2007,05,22,17,20,16.80
2007,05,22,17,21,16.90
2007,05,22,17,22,16.90
2007,05,22,17,23,16.90
2007,05,22,17,24,16.90
2007,05,22,17,25,17.00
2007,05,22,17,26,17.00
2007,05,22,17,27,17.00
2007,05,22,17,28,17.00
2007,05,22,17,29,17.00
2007,05,22,17,30,17.00
2007,05,22,17,31,17.00
2007,05,22,17,32,17.00
2007,05,22,17,33,17.00
2007,05,22,17,34,17.10
2007,05,22,17,35,17.10
2007,05,22,17,36,17.10
2007,05,22,17,37,17.10
2007,05,22,17,38,17.10
2007,05,22,17,39,17.10
2007,05,22,17,40,17.10
2007,05,22,17,41,17.10